INTELSAT 29E DEB, 62723

Orbit data source: Space-Track

INTELSAT 29E DEB, 62723 is space debris in GEO originally from a launch on Wed, 27 Jan 2016 UTC launched from the French Guiana (FRGUI). Debris objects in space refer to the collection of defunct objects orbiting the Earth. Examples of debris include non-operational satellites, rocket bodies, and fragments generated from explosions, collisions, or faulty payload assembly.

Not visible in the next 10 days
Identifier
62723, 2016-004E
Orbit
GEO
Last TLE update
3 months ago
Origin
Manufacturer
Unknown
Mission
Spacecraft
Bus & Motor
Unknown
Mass
Unknown
Launch date (UTC)
2016-01-27 (9 years ago)
Launch vehicle
Unknown
Launch site
French Guiana (FRGUI)
Object type
Payload
Rocket body
Debris
Shape & HBR
Unknown
Radar Cross Section
RCS unknown

Expand to show TLE details & history

TLE from 3 months ago
0 INTELSAT 29E DEB
1 62723U 16004E   25086.52352323  .00000010  00000-0  00000-0 0  9998
2 62723   5.4043  75.8258 0623060 307.4539  47.2101  1.00540659  8060
Epoch: 2025-03-27T12:33Z
TLE epoch observation values (Epoch: 2025-03-27T12:33:52.407Z)
Latitude
-0.00089°
Longitude
62.38968°
Altitude
34,024.021 km
Speed
3.203 km/s
True Right ascension
05h 04m 12s
True Declination
0° 00' 03"
Sunlit
Object was in daylight at epoch
Visualization orbit readout
Latitude
-4.17899°
Longitude
13.41106°
Altitude
33,094.223 km
Speed
3.275 km/s
Apparent Right ascension
01h 21m 56s
Apparent Declination
-9° 36' 44"
Sunlit
Object is in daylight
Visualization observer readout
Local Sidereal Time
08:53:00
Azimuth
277.317° WNW
Elevation
-23.564°
Doppler factor
1
Orbital elements
Apogee altitude
38,334.948 km
Perigee altitude
33,089.956 km
Semi-major axis
42,090.589 km
Eccentricity
0.06231
Inclination
5.4043°
RAAN
75.8258°
Arg. of periapsis
307.4539°
True anomaly
Unknown
Mean anomaly
47.2101°
Eccentric anomaly
Unknown
Mean motion
0.25134 °/min
Orbital period
1,432.31 mins
BSTAR
0
Loading historical data...
62723 neighbors
Loading maneuver chart data...
Loading SW <> Apogee altitude chart data...
Loading historical data...
Loading historical data...
Loading historical data...
Loading historical data...
Loading historical data...
Loading historical data...
Loading historical data...
Other satellites on launch #4 in the year 2016 (2016-01-27 UTC)

INTELSAT 29E DEB Visibility

Observer location: undefined°, undefined°

INTELSAT 29E DEB is likely not visible in the next few days
Span
Click to sort rows by Start time (UTC) header in descending order
Start Az.
Max El. time (UTC)
Max El. Az.
Max El.
End time (UTC)
End Az.
|